Weather History for Puyallup, WA

Change the Weather History Date:

Sunday, December 15, 2013

  Actual Average (KTCM) Record (KTCM)
Temperature  
Mean Temperature 50 °F -  
Max Temperature 53 °F 44 °F 61 °F (1976)
Min Temperature 46 °F 32 °F 19 °F (1967)
Degree Days  
Heating Degree Days 16    
Moisture  
Dew Point 46 °F    
Average Humidity 91    
Maximum Humidity 100    
Minimum Humidity 77    
Precipitation  
Precipitation 0.00 in - - ()
Sea Level Pressure  
Sea Level Pressure 30.39 in    
Wind  
Wind Speed 1 mph (SW)    
Max Wind Speed 8 mph    
Max Gust Speed -    
Visibility 10 miles    
Events      
Averages and records for this station are not official NWS values.
T = Trace of Precipitation, MM = Missing Value Source: NWS Daily Summary

Daily Weather History Graph

Daily Weather History Graph

Search for Another Location

Airport:

Trip Planner

Search our weather history database for the weather conditions in past years. The results will help you decide how hot, cold, wet, or windy it might be!

Date:

Astronomy

Dec. 15, 2013 Rise Set
Actual Time 7:48 AM PST 4:20 PM PST
Civil Twilight 7:13 AM PST 4:55 PM PST
Nautical Twilight 6:34 AM PST 5:34 PM PST
Astronomical Twilight 5:57 AM PST 6:11 PM PST
Moon 3:32 PM PST (12/15) 6:05 AM PST (12/15)
Length of Visible Light 9h 42m
Length of Day
8h 31m
Waxing Gibbous, 98% of the Moon is Illuminated
Dec 15
Waxing Gibbous
Dec 17
Full
Dec 25
Last Quarter
Jan 1
New
Jan 7
First Quarter

Hourly Weather History & Observations

Time (PST) Temp. Dew Point Humidity Pressure Visibility Wind Dir Wind Speed Gust Speed Precip Events Conditions
12:15 AM 46.4 °F 42.8 °F 87% 30.38 in 10.0 mi Calm Calm - N/A   Unknown
12:35 AM 46.4 °F 42.8 °F 87% 30.37 in 10.0 mi Calm Calm - N/A   Unknown
12:55 AM 46.4 °F 42.8 °F 87% 30.37 in 10.0 mi Calm Calm - N/A   Unknown
1:15 AM 46.4 °F 42.8 °F 87% 30.36 in 10.0 mi Calm Calm - N/A   Unknown
1:35 AM 46.4 °F 42.8 °F 87% 30.37 in 10.0 mi Calm Calm - N/A   Unknown
1:55 AM 46.4 °F 42.8 °F 87% 30.36 in 10.0 mi Calm Calm - N/A   Unknown
2:15 AM 46.4 °F 42.8 °F 87% 30.37 in 10.0 mi Calm Calm - N/A   Unknown
2:35 AM 46.4 °F 44.6 °F 93% 30.37 in 10.0 mi Calm Calm - N/A   Unknown
2:55 AM 46.4 °F 44.6 °F 93% 30.37 in 10.0 mi Calm Calm - N/A   Unknown
3:15 AM 48.2 °F 42.8 °F 82% 30.38 in 8.0 mi Calm Calm - N/A   Unknown
3:35 AM 46.4 °F 44.6 °F 93% 30.38 in 4.0 mi Calm Calm - N/A   Mist
3:55 AM 46.4 °F 44.6 °F 93% 30.37 in 10.0 mi Calm Calm - N/A   Unknown
4:15 AM 46.4 °F 46.4 °F 100% 30.37 in 8.0 mi Calm Calm - N/A   Unknown
4:35 AM 46.4 °F 46.4 °F 100% 30.37 in 9.0 mi Calm Calm - N/A   Unknown
4:55 AM 46.4 °F 46.4 °F 100% 30.36 in 10.0 mi Calm Calm - N/A   Unknown
5:15 AM 46.4 °F 46.4 °F 100% 30.36 in 9.0 mi Calm Calm - N/A   Unknown
5:35 AM 46.4 °F 46.4 °F 100% 30.35 in 10.0 mi Calm Calm - N/A   Unknown
5:55 AM 48.2 °F 48.2 °F 100% 30.35 in 8.0 mi Calm Calm - N/A   Unknown
6:15 AM 48.2 °F 48.2 °F 100% 30.35 in 10.0 mi Calm Calm - N/A   Unknown
6:35 AM 48.2 °F 48.2 °F 100% 30.34 in 10.0 mi Calm Calm - N/A   Unknown
6:55 AM 48.2 °F 48.2 °F 100% 30.35 in 10.0 mi Calm Calm - N/A   Unknown
7:15 AM 48.2 °F 48.2 °F 100% 30.35 in 10.0 mi Calm Calm - N/A   Unknown
7:35 AM 48.2 °F 48.2 °F 100% 30.36 in 10.0 mi Calm Calm - N/A   Unknown
7:55 AM 48.2 °F 46.4 °F 93% 30.35 in 10.0 mi SSW 4.6 mph - N/A   Unknown
8:15 AM 48.2 °F 46.4 °F 93% 30.37 in 10.0 mi Calm Calm - N/A   Unknown
8:35 AM 48.2 °F 46.4 °F 93% 30.37 in 10.0 mi SSW 3.5 mph - N/A   Unknown
8:55 AM 48.2 °F 46.4 °F 93% 30.38 in 10.0 mi Calm Calm - N/A   Unknown
9:15 AM 50.0 °F 46.4 °F 87% 30.39 in 10.0 mi WSW 3.5 mph - N/A   Unknown
9:35 AM 50.0 °F 48.2 °F 94% 30.39 in 10.0 mi SSW 4.6 mph - N/A   Unknown
9:55 AM 50.0 °F 48.2 °F 94% 30.39 in 10.0 mi Calm Calm - N/A   Unknown
10:15 AM 50.0 °F 46.4 °F 87% 30.39 in 10.0 mi SSW 6.9 mph - N/A   Unknown
10:35 AM 50.0 °F 46.4 °F 87% 30.39 in 10.0 mi SSW 6.9 mph - N/A   Unknown
10:55 AM 50.0 °F 48.2 °F 94% 30.39 in 10.0 mi SW 3.5 mph - N/A   Unknown
11:15 AM 51.8 °F 48.2 °F 88% 30.39 in 10.0 mi SW 3.5 mph - N/A   Unknown
11:35 AM 51.8 °F 48.2 °F 88% 30.39 in 10.0 mi SW 6.9 mph - N/A   Unknown
11:55 AM 53.6 °F 48.2 °F 82% 30.39 in 10.0 mi SSW 4.6 mph - N/A   Unknown
12:15 PM 53.6 °F 48.2 °F 82% 30.38 in 10.0 mi SW 8.1 mph - N/A   Unknown
12:35 PM 53.6 °F 48.2 °F 82% 30.38 in 10.0 mi SSW 8.1 mph - N/A   Unknown
12:55 PM 53.6 °F 48.2 °F 82% 30.38 in 10.0 mi WSW 8.1 mph - N/A   Unknown
1:15 PM 53.6 °F 46.4 °F 77% 30.38 in 10.0 mi SW 6.9 mph - N/A   Unknown
1:35 PM 53.6 °F 46.4 °F 77% 30.38 in 10.0 mi Calm Calm - N/A   Unknown
1:55 PM 53.6 °F 46.4 °F 77% 30.38 in 10.0 mi WSW 8.1 mph - N/A   Unknown
2:15 PM 51.8 °F 46.4 °F 82% 30.38 in 10.0 mi SW 4.6 mph - N/A   Unknown
2:35 PM 53.6 °F 46.4 °F 77% 30.39 in 10.0 mi WSW 6.9 mph - N/A   Unknown
2:55 PM 50.0 °F 46.4 °F 87% 30.38 in 10.0 mi WSW 8.1 mph - N/A   Unknown
3:15 PM 50.0 °F 46.4 °F 87% 30.38 in 10.0 mi WSW 4.6 mph - N/A   Unknown
3:35 PM 51.8 °F 46.4 °F 82% 30.39 in 10.0 mi Calm Calm - N/A   Unknown
3:55 PM 50.0 °F 46.4 °F 87% 30.39 in 10.0 mi Calm Calm - N/A   Unknown
4:15 PM 50.0 °F 46.4 °F 87% 30.39 in 10.0 mi Calm Calm - N/A   Unknown
4:35 PM 50.0 °F 46.4 °F 87% 30.40 in 10.0 mi Calm Calm - N/A   Unknown
4:55 PM 50.0 °F 46.4 °F 87% 30.40 in 10.0 mi Calm Calm - N/A   Unknown
5:15 PM 50.0 °F 46.4 °F 87% 30.40 in 8.0 mi Calm Calm - N/A   Unknown
5:35 PM 50.0 °F 46.4 °F 87% 30.40 in 10.0 mi Calm Calm - N/A   Unknown
5:55 PM 50.0 °F 46.4 °F 87% 30.40 in 10.0 mi Calm Calm - N/A   Unknown
6:15 PM 48.2 °F 46.4 °F 93% 30.40 in 10.0 mi Calm Calm - N/A   Unknown
6:35 PM 48.2 °F 46.4 °F 93% 30.40 in 10.0 mi Calm Calm - N/A   Unknown
6:55 PM 48.2 °F 46.4 °F 93% 30.41 in 10.0 mi SW 3.5 mph - N/A   Unknown
7:15 PM 48.2 °F 46.4 °F 93% 30.41 in 10.0 mi Calm Calm - N/A   Unknown
7:35 PM 48.2 °F 46.4 °F 93% 30.41 in 10.0 mi SW 3.5 mph - N/A   Unknown
7:55 PM 48.2 °F 46.4 °F 93% 30.42 in 10.0 mi Calm Calm - N/A   Unknown
8:15 PM 48.2 °F 46.4 °F 93% 30.42 in 10.0 mi Calm Calm - N/A   Unknown
8:35 PM 48.2 °F 46.4 °F 93% 30.42 in 10.0 mi Calm Calm - N/A   Unknown
8:55 PM 48.2 °F 46.4 °F 93% 30.43 in 10.0 mi Calm Calm - N/A   Unknown
9:15 PM 48.2 °F 46.4 °F 93% 30.44 in 10.0 mi SW 3.5 mph - N/A   Unknown
9:35 PM 46.4 °F 46.4 °F 100% 30.44 in 8.0 mi Calm Calm - N/A   Unknown
9:55 PM 46.4 °F 46.4 °F 100% 30.44 in 10.0 mi Calm Calm - N/A   Unknown
10:15 PM 46.4 °F 46.4 °F 100% 30.44 in 10.0 mi Calm Calm - N/A   Unknown
10:35 PM 46.4 °F 46.4 °F 100% 30.45 in 10.0 mi Calm Calm - N/A   Unknown
10:55 PM 46.4 °F 46.4 °F 100% 30.46 in 10.0 mi Calm Calm - N/A   Unknown
11:15 PM 46.4 °F 46.4 °F 100% 30.46 in 10.0 mi Calm Calm - N/A   Unknown
11:35 PM 46.4 °F 46.4 °F 100% 30.46 in 10.0 mi Calm Calm - N/A   Unknown
11:55 PM 46.4 °F 46.4 °F 100% 30.46 in 10.0 mi Calm Calm - N/A   Unknown